Location: Okie-Tex Star Party
(36.8978°N, 102.9520°W)
Time: 04:28:38
(UTC-06:00)

Daily predictions for brighter satellites

Satellite Brightness Start Highest point End
(mag) Time Altitude Azimuth Time Altitude Azimuth Time Altitude Azimuth
Cosmos 2278 Rocket 3.0 04:44:17 48° E 04:44:17 48° E 04:49:13 10° SE
Cosmos 2173 Rocket 4.4 04:46:58 40° NNE 04:49:09 61° E 04:55:25 10° SSE
Hubble Space Telescope 3.5 05:04:12 13° SSE 05:04:12 13° SSE 05:05:39 10° SE
Cosmos 1459 Rocket 3.9 05:02:47 61° N 05:03:56 81° E 05:10:00 10° S
Cosmos 2100 Rocket 3.9 05:07:54 65° NNW 05:08:57 85° W 05:15:19 10° S
Atlas Centaur 2 3.3 05:08:15 47° SW 05:10:03 55° S 05:18:22 10° ESE
Lacrosse 5 rocket 3.7 05:09:27 14° S 05:12:24 25° ESE 05:16:11 10° ENE
CZ-4B DEB 4.1 05:07:45 10° NNE 05:21:06 - SSW 05:13:08 83° NNW
Delta 2 Rocket 4.3 05:16:31 46° ESE 05:16:31 46° ESE 05:19:49 10° E
Cosmos 2237 Rocket 3.0 05:20:39 36° N 05:20:39 36° N 05:24:11 10° NNE
Cosmos 1802 Rocket 3.9 05:13:46 15° N 05:19:00 90° E 05:25:15 10° S
Cosmos 2333 Rocket 4.0 05:22:59 18° N 05:22:59 18° N 05:24:42 10° N
IRS-1C Rocket 4.0 05:16:06 10° NNE 05:21:24 86° ESE 05:26:39 10° SSW
CZ-2C R/B 4.2 05:22:26 10° SSE 05:26:52 56° ENE 05:29:30 23° N
Cosmos 1470 Rocket 4.1 05:22:55 10° S 05:27:17 57° E 05:31:40 10° NNE
Okean-O 4.2 05:25:13 10° NNE 05:29:18 35° E 05:33:21 10° SSE
DEBRIS 4.4 05:30:33 24° NNE 05:30:33 24° NNE 05:32:18 10° ENE
ASTRO E2 4.2 05:34:15 27° S 05:34:15 27° S 05:37:08 10° SE
Cosmos 1302 Rocket 4.0 05:34:58 58° NW 05:34:58 58° NW 05:39:42 10° N
IDEFIX/ARIANE 42P 4.5 05:30:18 10° NE 05:34:50 30° E 05:39:20 10° SSE
SL-08 R/B 4.5 05:31:45 10° N 05:38:12 89° E 05:44:36 10° S
Cosmos 2123 Rocket 3.8 05:37:42 10° S 05:43:55 80° W 05:50:12 10° N
Cosmos 2219 Rocket 4.3 05:48:40 11° NNW 05:48:40 11° NNW 05:49:06 10° NNW
Cosmos 2061 Rocket 4.2 05:42:12 10° NNW 05:48:22 51° W 05:54:32 10° SSW
Cosmos 1725 Rocket 3.9 05:42:11 10° N 05:48:24 89° W 05:54:34 10° S
SL-16 R/B 2.1 05:46:28 10° SSW 05:52:05 72° WNW 05:57:47 10° NNE
Meteor 1-26 Rocket 4.2 05:50:16 10° N 05:55:51 82° E 06:01:29 10° S
Cosmos 1486 Rocket 4.1 05:58:44 23° NW 06:01:54 57° WSW 06:07:06 10° S
Meteor 2-10 Rocket 4.3 06:00:50 28° NW 06:02:50 36° W 06:08:04 10° SSW
USA 229 DEB 4.2 05:57:16 10° NNW 06:04:21 67° NE 06:11:39 10° SE
USA 229 4.2 05:57:21 10° NNW 06:04:26 66° NE 06:11:44 10° SE
Cosmos 2242 Rocket 3.8 06:08:48 19° NNW 06:11:41 43° W 06:15:51 10° SSW
Cosmos 1933 Rocket 3.7 06:07:35 10° SSW 06:11:46 49° W 06:16:01 10° N
Cosmos 1892 3.1 06:08:23 10° SSW 06:11:55 36° W 06:15:27 10° N
Cosmos 2016 Rocket 4.3 06:06:28 10° NNW 06:12:05 38° W 06:17:38 10° SSW
COSMO-SKYMED 1 2.5 06:09:30 10° SSE 06:13:51 88° W 06:18:12 10° NNW
CZ-4B R/B 4.0 06:09:07 10° N 06:13:52 28° WNW 06:18:36 10° WSW
USA 32 3.9 06:08:54 10° S 06:14:06 75° W 06:19:20 10° N
Cosmos 1354 Rocket 3.9 06:10:00 10° NNW 06:15:15 87° WSW 06:20:29 10° SSE
ISS -3.5 06:14:49 38° W 06:15:33 47° SW 06:18:40 10° SSE
Cosmos 2297 3.7 06:12:15 11° NNW 06:17:48 65° WSW 06:23:26 10° S
CZ-2C R/B 3.1 06:13:31 10° NNE 06:18:40 62° E 06:23:41 10° S
DELTA 2 R/B (1) 3.7 06:15:58 24° WNW 06:19:20 67° N 06:24:54 10° E
Cosmos 2369 Rocket 4.2 06:18:51 10° N 06:23:23 25° ENE 06:27:53 10° ESE
Cosmos 1437 4.1 06:26:23 21° WSW 06:26:23 21° WSW 06:28:23 10° SW
Cosmos 2278 Rocket 3.4 06:26:13 19° W 06:27:23 20° W 06:31:22 10° SW
MTI 4.5 06:25:23 10° SSW 06:28:17 32° W 06:29:56 20° NW
EO 1 Del DPAF 3.6 06:30:25 10° S 06:34:04 42° W 06:37:45 10° NNW
Cosmos 1862 Rocket 4.3 06:31:50 10° NNW 06:35:47 31° W 06:39:42 10° SSW
USA 215 3.2 06:34:54 10° NE 06:41:27 83° NW 06:47:59 10° SW
Hubble Space Telescope 2.7 06:40:55 10° SW 06:44:15 24° S 06:47:35 10° ESE
Cosmos 1408 2.7 06:40:47 10° SSW 06:44:25 52° W 06:48:05 10° N
Cosmos 2084 Rocket 3.3 06:45:30 10° NNW 06:49:21 76° ENE 06:53:13 10° SE
SMAP 4.3 06:46:45 10° NNE 06:51:14 46° E 06:55:41 10° S
Lacrosse 5 rocket 2.0 06:47:04 10° WSW 06:51:27 42° NW 06:55:55 10° NNE
Delta 2 Rocket 3.8 06:53:36 10° W 06:57:51 66° S 07:02:41 10° ESE
Meteor 1-27 Rocket 4.4 06:52:13 10° N 06:58:01 61° E 07:03:42 10° SSE
Atlas Centaur 2 3.8 06:51:40 10° W 06:59:36 47° SSW 07:07:34 10° ESE
Meteor 1-10 Rocket 4.4 06:56:54 10° NNW 07:02:48 71° W 07:08:41 10° S
Cosmos 1943 3.4 06:58:17 10° SSW 07:03:57 79° ESE 07:09:40 10° NNE
Okean-O 4.0 07:02:24 10° NNW 07:05:29 19° WNW 07:08:35 10° WSW
PSLV R/B 3.1 07:05:01 10° W 07:08:10 67° NNW 07:11:22 10° ENE
Okean 1-7 3.2 07:04:54 10° NNW 07:09:12 54° W 07:13:26 10° S
Cosmos 2221 Rocket 3.7 07:04:53 10° NNW 07:09:17 61° W 07:13:41 10° S
Cosmos 1733 Rocket 4.0 07:06:36 10° S 07:10:47 52° E 07:15:01 10° NNE
